Year,Month,Day,Hour,Minute,Value (Times are PST for temperature in C)
2006,07,21,00,00,17.20
2006,07,21,00,01,17.20
2006,07,21,00,02,17.20
2006,07,21,00,03,17.20
2006,07,21,00,04,17.30
2006,07,21,00,05,17.30
2006,07,21,00,06,17.30
2006,07,21,00,07,17.30
2006,07,21,00,08,17.30
2006,07,21,00,09,17.30
2006,07,21,00,10,17.30
2006,07,21,00,11,17.20
2006,07,21,00,12,17.20
2006,07,21,00,13,17.20
2006,07,21,00,14,17.20
2006,07,21,00,15,17.10
2006,07,21,00,16,17.00
2006,07,21,00,17,17.00
2006,07,21,00,18,17.00
2006,07,21,00,19,17.00
2006,07,21,00,20,17.00
2006,07,21,00,21,17.00
2006,07,21,00,22,16.90
2006,07,21,00,23,16.90
2006,07,21,00,24,16.90
2006,07,21,00,25,16.90
2006,07,21,00,26,16.90
2006,07,21,00,27,16.90
2006,07,21,00,28,16.80
2006,07,21,00,29,16.80
2006,07,21,00,30,16.80
2006,07,21,00,31,16.70
2006,07,21,00,32,16.70
2006,07,21,00,33,16.70
2006,07,21,00,34,16.70
2006,07,21,00,35,16.70
2006,07,21,00,36,16.70
2006,07,21,00,37,16.70
2006,07,21,00,38,16.70
2006,07,21,00,39,16.70
2006,07,21,00,40,16.70
2006,07,21,00,41,16.70
2006,07,21,00,42,16.70
2006,07,21,00,43,16.70
2006,07,21,00,44,16.70
2006,07,21,00,45,16.70
2006,07,21,00,46,16.70
2006,07,21,00,47,16.70
2006,07,21,00,48,16.70
2006,07,21,00,49,16.70
2006,07,21,00,50,16.70
2006,07,21,00,51,16.80
2006,07,21,00,52,16.80
2006,07,21,00,53,16.80
2006,07,21,00,54,16.80
2006,07,21,00,55,16.80
2006,07,21,00,56,16.70
2006,07,21,00,57,16.70
2006,07,21,00,58,16.70
2006,07,21,00,59,16.70
2006,07,21,01,00,16.70
2006,07,21,01,01,16.70
2006,07,21,01,02,16.70
2006,07,21,01,03,16.70
2006,07,21,01,04,16.70
2006,07,21,01,05,16.70
2006,07,21,01,06,16.60
2006,07,21,01,07,16.60
2006,07,21,01,08,16.60
2006,07,21,01,09,16.60
2006,07,21,01,10,16.50
2006,07,21,01,11,16.40
2006,07,21,01,12,16.40
2006,07,21,01,13,16.40
2006,07,21,01,14,16.40
2006,07,21,01,15,16.40
2006,07,21,01,16,16.40
2006,07,21,01,17,16.30
2006,07,21,01,18,16.30
2006,07,21,01,19,16.30
2006,07,21,01,20,16.30
2006,07,21,01,21,16.20
2006,07,21,01,22,16.20
2006,07,21,01,23,16.20
2006,07,21,01,24,16.20
2006,07,21,01,25,16.20
2006,07,21,01,26,16.10
2006,07,21,01,27,16.10
2006,07,21,01,28,16.10
2006,07,21,01,29,16.10
2006,07,21,01,30,16.10
2006,07,21,01,31,16.10
2006,07,21,01,32,16.10
2006,07,21,01,33,16.10
2006,07,21,01,34,16.10
2006,07,21,01,35,16.10
2006,07,21,01,36,16.10
2006,07,21,01,37,16.10
2006,07,21,01,38,16.10
2006,07,21,01,39,16.10
2006,07,21,01,40,16.10
2006,07,21,01,41,16.10
2006,07,21,01,42,16.10
2006,07,21,01,43,16.00
2006,07,21,01,44,15.90
2006,07,21,01,45,15.90
2006,07,21,01,46,15.90
2006,07,21,01,47,15.90
2006,07,21,01,48,15.90
2006,07,21,01,49,15.90
2006,07,21,01,50,15.80
2006,07,21,01,51,15.80
2006,07,21,01,52,15.80
2006,07,21,01,53,15.80
2006,07,21,01,54,15.80
2006,07,21,01,55,15.80
2006,07,21,01,56,15.80
2006,07,21,01,57,15.80
2006,07,21,01,58,15.80
2006,07,21,01,59,15.80
2006,07,21,02,00,15.80
2006,07,21,02,01,15.80
2006,07,21,02,02,15.80
2006,07,21,02,03,15.80
2006,07,21,02,04,15.80
2006,07,21,02,05,15.80
2006,07,21,02,06,15.80
2006,07,21,02,07,15.80
2006,07,21,02,08,15.80
2006,07,21,02,09,15.80
2006,07,21,02,10,15.80
2006,07,21,02,11,15.80
2006,07,21,02,12,15.80
2006,07,21,02,13,15.80
2006,07,21,02,14,15.80
2006,07,21,02,15,15.70
2006,07,21,02,16,15.70
2006,07,21,02,17,15.70
2006,07,21,02,18,15.70
2006,07,21,02,19,15.70
2006,07,21,02,20,15.70
2006,07,21,02,21,15.70
2006,07,21,02,22,15.70
2006,07,21,02,23,15.70
2006,07,21,02,24,15.70
2006,07,21,02,25,15.60
2006,07,21,02,26,15.60
2006,07,21,02,27,15.60
2006,07,21,02,28,15.60
2006,07,21,02,29,15.60
2006,07,21,02,30,15.60
2006,07,21,02,31,15.60
2006,07,21,02,32,15.50
2006,07,21,02,33,15.50
2006,07,21,02,34,15.50
2006,07,21,02,35,15.50
2006,07,21,02,36,15.50
2006,07,21,02,37,15.50
2006,07,21,02,38,15.50
2006,07,21,02,39,15.50
2006,07,21,02,40,15.50
2006,07,21,02,41,15.50
2006,07,21,02,42,15.50
2006,07,21,02,43,15.50
2006,07,21,02,44,15.50
2006,07,21,02,45,15.50
2006,07,21,02,46,15.50
2006,07,21,02,47,15.50
2006,07,21,02,48,15.50
2006,07,21,02,49,15.50
2006,07,21,02,50,15.50
2006,07,21,02,51,15.50
2006,07,21,02,52,15.50
2006,07,21,02,53,15.50
2006,07,21,02,54,15.50
2006,07,21,02,55,15.50
2006,07,21,02,56,15.50
2006,07,21,02,57,15.50
2006,07,21,02,58,15.50
2006,07,21,02,59,15.50
2006,07,21,03,00,15.50
2006,07,21,03,01,15.50
2006,07,21,03,02,15.50
2006,07,21,03,03,15.40
2006,07,21,03,04,15.40
2006,07,21,03,05,15.40
2006,07,21,03,06,15.40
2006,07,21,03,07,15.40
2006,07,21,03,08,15.40
2006,07,21,03,09,15.40
2006,07,21,03,10,15.40
2006,07,21,03,11,15.40
2006,07,21,03,12,15.40
2006,07,21,03,13,15.40
2006,07,21,03,14,15.40
2006,07,21,03,15,15.40
2006,07,21,03,16,15.40
2006,07,21,03,17,15.50
2006,07,21,03,18,15.50
2006,07,21,03,19,15.50
2006,07,21,03,20,15.50
2006,07,21,03,21,15.50
2006,07,21,03,22,15.50
2006,07,21,03,23,15.60
2006,07,21,03,24,15.60
2006,07,21,03,25,15.60
2006,07,21,03,26,15.60
2006,07,21,03,27,15.60
2006,07,21,03,28,15.60
2006,07,21,03,29,15.60
2006,07,21,03,30,15.60
2006,07,21,03,31,15.60
2006,07,21,03,32,15.60
2006,07,21,03,33,15.60
2006,07,21,03,34,15.70
2006,07,21,03,35,15.70
2006,07,21,03,36,15.70
2006,07,21,03,37,15.70
2006,07,21,03,38,15.70
2006,07,21,03,39,15.70
2006,07,21,03,40,15.70
2006,07,21,03,41,15.70
2006,07,21,03,42,15.70
2006,07,21,03,43,15.60
2006,07,21,03,44,15.60
2006,07,21,03,45,15.60
2006,07,21,03,46,15.50
2006,07,21,03,47,15.50
2006,07,21,03,48,15.50
2006,07,21,03,49,15.50
2006,07,21,03,50,15.50
2006,07,21,03,51,15.50
2006,07,21,03,52,15.40
2006,07,21,03,53,15.40
2006,07,21,03,54,15.40
2006,07,21,03,55,15.40
2006,07,21,03,56,15.40
2006,07,21,03,57,15.40
2006,07,21,03,58,15.40
2006,07,21,03,59,15.40
2006,07,21,04,00,15.40
2006,07,21,04,01,15.40
2006,07,21,04,02,15.40
2006,07,21,04,03,15.40
2006,07,21,04,04,15.40
2006,07,21,04,05,15.40
2006,07,21,04,06,15.40
2006,07,21,04,07,15.40
2006,07,21,04,08,15.40
2006,07,21,04,09,15.40
2006,07,21,04,10,15.40
2006,07,21,04,11,15.40
2006,07,21,04,12,15.40
2006,07,21,04,13,15.40
2006,07,21,04,14,15.40
2006,07,21,04,15,15.40
2006,07,21,04,16,15.40
2006,07,21,04,17,15.40
2006,07,21,04,18,15.40
2006,07,21,04,19,15.40
2006,07,21,04,20,15.40
2006,07,21,04,21,15.40
2006,07,21,04,22,15.40
2006,07,21,04,23,15.40
2006,07,21,04,24,15.40
2006,07,21,04,25,15.40
2006,07,21,04,26,15.40
2006,07,21,04,27,15.40
2006,07,21,04,28,15.30
2006,07,21,04,29,15.30
2006,07,21,04,30,15.30
2006,07,21,04,31,15.30
2006,07,21,04,32,15.30
2006,07,21,04,33,15.30
2006,07,21,04,34,15.30
2006,07,21,04,35,15.30
2006,07,21,04,36,15.30
2006,07,21,04,37,15.30
2006,07,21,04,38,15.30
2006,07,21,04,39,15.30
2006,07,21,04,40,15.30
2006,07,21,04,41,15.30
2006,07,21,04,42,15.30
2006,07,21,04,43,15.30
2006,07,21,04,44,15.30
2006,07,21,04,45,15.30
2006,07,21,04,46,15.30
2006,07,21,04,47,15.30
2006,07,21,04,48,15.30
2006,07,21,04,49,15.30
2006,07,21,04,50,15.20
2006,07,21,04,51,15.20
2006,07,21,04,52,15.20
2006,07,21,04,53,15.10
2006,07,21,04,54,15.10
2006,07,21,04,55,15.10
2006,07,21,04,56,15.10
2006,07,21,04,57,15.10
2006,07,21,04,58,15.10
2006,07,21,04,59,15.10
2006,07,21,05,00,15.10
2006,07,21,05,01,15.10
2006,07,21,05,02,15.20
2006,07,21,05,03,15.30
2006,07,21,05,04,15.30
2006,07,21,05,05,15.30
2006,07,21,05,06,15.30
2006,07,21,05,07,15.40
2006,07,21,05,08,15.40
2006,07,21,05,09,15.40
2006,07,21,05,10,15.40
2006,07,21,05,11,15.40
2006,07,21,05,12,15.40
2006,07,21,05,13,15.40
2006,07,21,05,14,15.50
2006,07,21,05,15,15.50
2006,07,21,05,16,15.50
2006,07,21,05,17,15.50
2006,07,21,05,18,15.40
2006,07,21,05,19,15.40
2006,07,21,05,20,15.40
2006,07,21,05,21,15.40
2006,07,21,05,22,15.40
2006,07,21,05,23,15.40
2006,07,21,05,24,15.40
2006,07,21,05,25,15.40
2006,07,21,05,26,15.40
2006,07,21,05,27,15.40
2006,07,21,05,28,15.40
2006,07,21,05,29,15.40
2006,07,21,05,30,15.30
2006,07,21,05,31,15.30
2006,07,21,05,32,15.30
2006,07,21,05,33,15.30
2006,07,21,05,34,15.30
2006,07,21,05,35,15.30
2006,07,21,05,36,15.30
2006,07,21,05,37,15.30
2006,07,21,05,38,15.20
2006,07,21,05,39,15.20
2006,07,21,05,40,15.20
2006,07,21,05,41,15.20
2006,07,21,05,42,15.10
2006,07,21,05,43,15.10
2006,07,21,05,44,15.10
2006,07,21,05,45,15.10
2006,07,21,05,46,15.10
2006,07,21,05,47,15.10
2006,07,21,05,48,15.10
2006,07,21,05,49,15.10
2006,07,21,05,50,15.10
2006,07,21,05,51,15.10
2006,07,21,05,52,15.00
2006,07,21,05,53,15.00
2006,07,21,05,54,15.00
2006,07,21,05,55,15.00
2006,07,21,05,56,15.00
2006,07,21,05,57,15.00
2006,07,21,05,58,15.00
2006,07,21,05,59,15.10
2006,07,21,06,00,15.10
2006,07,21,06,01,15.10
2006,07,21,06,02,15.10
2006,07,21,06,03,15.10
2006,07,21,06,04,15.00
2006,07,21,06,05,15.00
2006,07,21,06,06,15.00
2006,07,21,06,07,15.00
2006,07,21,06,08,15.00
2006,07,21,06,09,15.00
2006,07,21,06,10,14.90
2006,07,21,06,11,14.90
2006,07,21,06,12,14.90
2006,07,21,06,13,14.90
2006,07,21,06,14,14.90
2006,07,21,06,15,14.90
2006,07,21,06,16,15.00
2006,07,21,06,17,15.00
2006,07,21,06,18,15.00
2006,07,21,06,19,15.10
2006,07,21,06,20,15.10
2006,07,21,06,21,15.20
2006,07,21,06,22,15.20
2006,07,21,06,23,15.30
2006,07,21,06,24,15.30
2006,07,21,06,25,15.30
2006,07,21,06,26,15.40
2006,07,21,06,27,15.40
2006,07,21,06,28,15.50
2006,07,21,06,29,15.50
2006,07,21,06,30,15.50
2006,07,21,06,31,15.60
2006,07,21,06,32,15.60
2006,07,21,06,33,15.70
2006,07,21,06,34,15.70
2006,07,21,06,35,15.80
2006,07,21,06,36,15.80
2006,07,21,06,37,15.80
2006,07,21,06,38,15.80
2006,07,21,06,39,15.80
2006,07,21,06,40,15.90
2006,07,21,06,41,15.90
2006,07,21,06,42,15.90
2006,07,21,06,43,16.10
2006,07,21,06,44,16.10
2006,07,21,06,45,16.10
2006,07,21,06,46,16.10
2006,07,21,06,47,16.20
2006,07,21,06,48,16.20
2006,07,21,06,49,16.20
2006,07,21,06,50,16.30
2006,07,21,06,51,16.30
2006,07,21,06,52,16.40
2006,07,21,06,53,16.40
2006,07,21,06,54,16.40
2006,07,21,06,55,16.50
2006,07,21,06,56,16.60
2006,07,21,06,57,16.60
2006,07,21,06,58,16.70
2006,07,21,06,59,16.80
2006,07,21,07,00,16.90
2006,07,21,07,01,16.90
2006,07,21,07,02,17.00
2006,07,21,07,03,17.00
2006,07,21,07,04,17.10
2006,07,21,07,05,17.40
2006,07,21,07,06,17.60
2006,07,21,07,07,17.70
2006,07,21,07,08,17.80
2006,07,21,07,09,17.90
2006,07,21,07,10,17.90
2006,07,21,07,11,17.90
2006,07,21,07,12,17.90
2006,07,21,07,13,17.90
2006,07,21,07,14,17.90
2006,07,21,07,15,18.00
2006,07,21,07,16,18.10
2006,07,21,07,17,18.10
2006,07,21,07,18,18.20
2006,07,21,07,19,18.20
2006,07,21,07,20,18.30
2006,07,21,07,21,18.40
2006,07,21,07,22,18.50
2006,07,21,07,23,18.60
2006,07,21,07,24,18.60
2006,07,21,07,25,18.70
2006,07,21,07,26,18.80
2006,07,21,07,27,18.90
2006,07,21,07,28,18.90
2006,07,21,07,29,18.90
2006,07,21,07,30,19.10
2006,07,21,07,31,19.10
2006,07,21,07,32,19.10
2006,07,21,07,33,19.20
2006,07,21,07,34,19.30
2006,07,21,07,35,19.40
2006,07,21,07,36,19.40
2006,07,21,07,37,19.60
2006,07,21,07,38,19.70
2006,07,21,07,39,19.80
2006,07,21,07,40,19.80
2006,07,21,07,41,19.90
2006,07,21,07,42,19.90
2006,07,21,07,43,20.10
2006,07,21,07,44,20.20
2006,07,21,07,45,20.20
2006,07,21,07,46,20.20
2006,07,21,07,47,20.30
2006,07,21,07,48,20.40
2006,07,21,07,49,20.40
2006,07,21,07,50,20.50
2006,07,21,07,51,20.60
2006,07,21,07,52,20.60
2006,07,21,07,53,20.60
2006,07,21,07,54,20.60
2006,07,21,07,55,20.50
2006,07,21,07,56,20.40
2006,07,21,07,57,20.40
2006,07,21,07,58,20.30
2006,07,21,07,59,20.20
2006,07,21,08,00,20.20
2006,07,21,08,01,20.20
2006,07,21,08,02,20.30
2006,07,21,08,03,20.30
2006,07,21,08,04,20.30
2006,07,21,08,05,20.40
2006,07,21,08,06,20.40
2006,07,21,08,07,20.40
2006,07,21,08,08,20.40
2006,07,21,08,09,20.40
2006,07,21,08,10,20.30
2006,07,21,08,11,20.40
2006,07,21,08,12,20.40
2006,07,21,08,13,20.40
2006,07,21,08,14,20.40
2006,07,21,08,15,20.40
2006,07,21,08,16,20.40
2006,07,21,08,17,20.40
2006,07,21,08,18,20.40
2006,07,21,08,19,20.40
2006,07,21,08,20,20.40
2006,07,21,08,21,20.40
2006,07,21,08,22,20.40
2006,07,21,08,23,20.40
2006,07,21,08,24,20.40
2006,07,21,08,25,20.40
2006,07,21,08,26,20.40
2006,07,21,08,27,20.50
2006,07,21,08,28,20.50
2006,07,21,08,29,20.50
2006,07,21,08,30,20.50
2006,07,21,08,31,20.50
2006,07,21,08,32,20.50
2006,07,21,08,33,20.60
2006,07,21,08,34,20.60
2006,07,21,08,35,20.70
2006,07,21,08,36,20.70
2006,07,21,08,37,20.80
2006,07,21,08,38,20.90
2006,07,21,08,39,20.90
2006,07,21,08,40,21.00
2006,07,21,08,41,21.00
2006,07,21,08,42,21.10
2006,07,21,08,43,21.10
2006,07,21,08,44,21.10
2006,07,21,08,45,21.10
2006,07,21,08,46,21.10
2006,07,21,08,47,21.10
2006,07,21,08,48,21.10
2006,07,21,08,49,21.10
2006,07,21,08,50,21.10
2006,07,21,08,51,21.20
2006,07,21,08,52,21.20
2006,07,21,08,53,21.30
2006,07,21,08,54,21.30
2006,07,21,08,55,21.30
2006,07,21,08,56,21.40
2006,07,21,08,57,21.50
2006,07,21,08,58,21.60
2006,07,21,08,59,21.80
2006,07,21,09,00,21.90
2006,07,21,09,01,22.00
2006,07,21,09,02,22.10
2006,07,21,09,03,22.20
2006,07,21,09,04,22.30
2006,07,21,09,05,22.50
2006,07,21,09,06,22.60
2006,07,21,09,07,22.70
2006,07,21,09,08,22.80
2006,07,21,09,09,22.90
2006,07,21,09,10,23.10
2006,07,21,09,11,23.30
2006,07,21,09,12,23.50
2006,07,21,09,13,23.70
2006,07,21,09,14,23.90
2006,07,21,09,15,24.10
2006,07,21,09,16,24.20
2006,07,21,09,17,24.40
2006,07,21,09,18,24.60
2006,07,21,09,19,24.70
2006,07,21,09,20,24.80
2006,07,21,09,21,24.90
2006,07,21,09,22,25.00
2006,07,21,09,23,25.20
2006,07,21,09,24,25.30
2006,07,21,09,25,25.50
2006,07,21,09,26,25.70
2006,07,21,09,27,25.90
2006,07,21,09,28,26.10
2006,07,21,09,29,26.20
2006,07,21,09,30,26.30
2006,07,21,09,31,26.30
2006,07,21,09,32,26.40
2006,07,21,09,33,26.30
2006,07,21,09,34,26.20
2006,07,21,09,35,26.00
2006,07,21,09,36,25.90
2006,07,21,09,37,25.70
2006,07,21,09,38,25.50
2006,07,21,09,39,25.20
2006,07,21,09,40,24.90
2006,07,21,09,41,24.60
2006,07,21,09,42,24.30
2006,07,21,09,43,24.00
2006,07,21,09,44,23.70
2006,07,21,09,45,23.50
2006,07,21,09,46,23.30
2006,07,21,09,47,23.10
2006,07,21,09,48,23.00
2006,07,21,09,49,22.90
2006,07,21,09,50,22.90
2006,07,21,09,51,23.00
2006,07,21,09,52,23.10
2006,07,21,09,53,23.10
2006,07,21,09,54,23.00
2006,07,21,09,55,22.90
2006,07,21,09,56,22.70
2006,07,21,09,57,22.70
2006,07,21,09,58,22.80
2006,07,21,09,59,22.80
2006,07,21,10,00,23.00
2006,07,21,10,01,23.20
2006,07,21,10,02,23.30
2006,07,21,10,03,23.30
2006,07,21,10,04,23.40
2006,07,21,10,05,23.40
2006,07,21,10,06,23.30
2006,07,21,10,07,23.30
2006,07,21,10,08,23.30
2006,07,21,10,09,23.30
2006,07,21,10,10,23.40
2006,07,21,10,11,23.50
2006,07,21,10,12,23.70
2006,07,21,10,13,23.80
2006,07,21,10,14,24.00
2006,07,21,10,15,24.10
2006,07,21,10,16,24.10
2006,07,21,10,17,24.00
2006,07,21,10,18,23.90
2006,07,21,10,19,23.90
2006,07,21,10,20,23.80
2006,07,21,10,21,23.70
2006,07,21,10,22,23.70
2006,07,21,10,23,23.60
2006,07,21,10,24,23.60
2006,07,21,10,25,23.50
2006,07,21,10,26,23.40
2006,07,21,10,27,23.40
2006,07,21,10,28,23.30
2006,07,21,10,29,23.30
2006,07,21,10,30,23.30
2006,07,21,10,31,23.40
2006,07,21,10,32,23.40
2006,07,21,10,33,23.50
2006,07,21,10,34,23.60
2006,07,21,10,35,23.60
2006,07,21,10,36,23.70
2006,07,21,10,37,23.70
2006,07,21,10,38,23.80
2006,07,21,10,39,23.90
2006,07,21,10,40,24.00
2006,07,21,10,41,24.10
2006,07,21,10,42,24.20
2006,07,21,10,43,24.30
2006,07,21,10,44,24.40
2006,07,21,10,45,24.50
2006,07,21,10,46,24.60
2006,07,21,10,47,24.70
2006,07,21,10,48,24.70
2006,07,21,10,49,24.80
2006,07,21,10,50,24.90
2006,07,21,10,51,24.90
2006,07,21,10,52,24.90
2006,07,21,10,53,24.90
2006,07,21,10,54,24.90
2006,07,21,10,55,24.90
2006,07,21,10,56,24.80
2006,07,21,10,57,24.80
2006,07,21,10,58,24.80
2006,07,21,10,59,24.70
2006,07,21,11,00,24.70
2006,07,21,11,01,24.60
2006,07,21,11,02,24.50
2006,07,21,11,03,24.40
2006,07,21,11,04,24.40
2006,07,21,11,05,24.50
2006,07,21,11,06,24.50
2006,07,21,11,07,24.70
2006,07,21,11,08,24.90
2006,07,21,11,09,25.00
2006,07,21,11,10,25.00
2006,07,21,11,11,25.00
2006,07,21,11,12,25.00
2006,07,21,11,13,25.10
2006,07,21,11,14,25.20
2006,07,21,11,15,25.30
2006,07,21,11,16,25.40
2006,07,21,11,17,25.50
2006,07,21,11,18,25.60
2006,07,21,11,19,25.60
2006,07,21,11,20,25.70
2006,07,21,11,21,25.70
2006,07,21,11,22,25.70
2006,07,21,11,23,25.70
2006,07,21,11,24,25.60
2006,07,21,11,25,25.60
2006,07,21,11,26,25.40
2006,07,21,11,27,25.30
2006,07,21,11,28,25.30
2006,07,21,11,29,25.30
2006,07,21,11,30,25.30
2006,07,21,11,31,25.30
2006,07,21,11,32,25.30
2006,07,21,11,33,25.40
2006,07,21,11,34,25.40
2006,07,21,11,35,25.40
2006,07,21,11,36,25.50
2006,07,21,11,37,25.50
2006,07,21,11,38,25.60
2006,07,21,11,39,25.60
2006,07,21,11,40,25.60
2006,07,21,11,41,25.60
2006,07,21,11,42,25.70
2006,07,21,11,43,25.70
2006,07,21,11,44,25.80
2006,07,21,11,45,25.70
2006,07,21,11,46,25.60
2006,07,21,11,47,25.40
2006,07,21,11,48,25.20
2006,07,21,11,49,25.20
2006,07,21,11,50,25.10
2006,07,21,11,51,25.20
2006,07,21,11,52,25.30
2006,07,21,11,53,25.50
2006,07,21,11,54,25.60
2006,07,21,11,55,25.70
2006,07,21,11,56,25.80
2006,07,21,11,57,25.90
2006,07,21,11,58,25.90
2006,07,21,11,59,25.90
2006,07,21,12,00,25.80
2006,07,21,12,01,25.70
2006,07,21,12,02,25.70
2006,07,21,12,03,25.80
2006,07,21,12,04,25.90
2006,07,21,12,05,26.00
2006,07,21,12,06,26.00
2006,07,21,12,07,26.20
2006,07,21,12,08,26.30
2006,07,21,12,09,26.50
2006,07,21,12,10,26.60
2006,07,21,12,11,26.80
2006,07,21,12,12,26.90
2006,07,21,12,13,27.00
2006,07,21,12,14,27.10
2006,07,21,12,15,27.20
2006,07,21,12,16,27.40
2006,07,21,12,17,27.50
2006,07,21,12,18,27.70
2006,07,21,12,19,27.80
2006,07,21,12,20,28.00
2006,07,21,12,21,28.20
2006,07,21,12,22,28.30
2006,07,21,12,23,28.30
2006,07,21,12,24,28.30
2006,07,21,12,25,28.20
2006,07,21,12,26,28.20
2006,07,21,12,27,28.30
2006,07,21,12,28,28.30
2006,07,21,12,29,28.30
2006,07,21,12,30,28.40
2006,07,21,12,31,28.40
2006,07,21,12,32,28.50
2006,07,21,12,33,28.60
2006,07,21,12,34,28.70
2006,07,21,12,35,28.80
2006,07,21,12,36,28.80
2006,07,21,12,37,28.70
2006,07,21,12,38,28.30
2006,07,21,12,39,27.80
2006,07,21,12,40,27.50
2006,07,21,12,41,27.30
2006,07,21,12,42,27.30
2006,07,21,12,43,27.20
2006,07,21,12,44,27.10
2006,07,21,12,45,27.10
2006,07,21,12,46,27.20
2006,07,21,12,47,27.20
2006,07,21,12,48,27.30
2006,07,21,12,49,27.50
2006,07,21,12,50,27.70
2006,07,21,12,51,27.90
2006,07,21,12,52,28.10
2006,07,21,12,53,28.30
2006,07,21,12,54,28.20
2006,07,21,12,55,27.90
2006,07,21,12,56,27.50
2006,07,21,12,57,27.30
2006,07,21,12,58,27.00
2006,07,21,12,59,26.70
2006,07,21,13,00,26.60
2006,07,21,13,01,26.60
2006,07,21,13,02,26.60
2006,07,21,13,03,26.70
2006,07,21,13,04,26.80
2006,07,21,13,05,26.80
2006,07,21,13,06,26.70
2006,07,21,13,07,26.60
2006,07,21,13,08,26.60
2006,07,21,13,09,26.60
2006,07,21,13,10,26.70
2006,07,21,13,11,26.90
2006,07,21,13,12,27.10
2006,07,21,13,13,27.20
2006,07,21,13,14,27.40
2006,07,21,13,15,27.60
2006,07,21,13,16,27.80
2006,07,21,13,17,27.80
2006,07,21,13,18,27.70
2006,07,21,13,19,27.70
2006,07,21,13,20,27.60
2006,07,21,13,21,27.60
2006,07,21,13,22,27.50
2006,07,21,13,23,27.30
2006,07,21,13,24,27.30
2006,07,21,13,25,27.30
2006,07,21,13,26,27.30
2006,07,21,13,27,27.20
2006,07,21,13,28,27.10
2006,07,21,13,29,27.20
2006,07,21,13,30,27.20
2006,07,21,13,31,27.20
2006,07,21,13,32,27.20
2006,07,21,13,33,27.40
2006,07,21,13,34,27.60
2006,07,21,13,35,27.80
2006,07,21,13,36,27.90
2006,07,21,13,37,28.00
2006,07,21,13,38,28.00
2006,07,21,13,39,28.00
2006,07,21,13,40,28.10
2006,07,21,13,41,28.00
2006,07,21,13,42,28.10
2006,07,21,13,43,28.20
2006,07,21,13,44,28.30
2006,07,21,13,45,28.50
2006,07,21,13,46,28.70
2006,07,21,13,47,28.80
2006,07,21,13,48,28.80
2006,07,21,13,49,29.00
2006,07,21,13,50,29.10
2006,07,21,13,51,29.10
2006,07,21,13,52,29.20
2006,07,21,13,53,29.30
2006,07,21,13,54,29.40
2006,07,21,13,55,29.60
2006,07,21,13,56,29.60
2006,07,21,13,57,29.40
2006,07,21,13,58,29.20
2006,07,21,13,59,29.10
2006,07,21,14,00,28.90
2006,07,21,14,01,28.90
2006,07,21,14,02,28.90
2006,07,21,14,03,28.90
2006,07,21,14,04,28.80
2006,07,21,14,05,28.60
2006,07,21,14,06,28.60
2006,07,21,14,07,28.60
2006,07,21,14,08,28.70
2006,07,21,14,09,28.50
2006,07,21,14,10,28.30
2006,07,21,14,11,28.00
2006,07,21,14,12,27.80
2006,07,21,14,13,27.40
2006,07,21,14,14,27.30
2006,07,21,14,15,27.10
2006,07,21,14,16,27.10
2006,07,21,14,17,27.10
2006,07,21,14,18,27.30
2006,07,21,14,19,27.30
2006,07,21,14,20,27.30
2006,07,21,14,21,27.20
2006,07,21,14,22,27.00
2006,07,21,14,23,26.80
2006,07,21,14,24,26.70
2006,07,21,14,25,26.50
2006,07,21,14,26,26.40
2006,07,21,14,27,26.40
2006,07,21,14,28,26.60
2006,07,21,14,29,26.60
2006,07,21,14,30,26.60
2006,07,21,14,31,26.70
2006,07,21,14,32,26.70
2006,07,21,14,33,26.60
2006,07,21,14,34,26.40
2006,07,21,14,35,26.40
2006,07,21,14,36,26.50
2006,07,21,14,37,26.70
2006,07,21,14,38,26.80
2006,07,21,14,39,27.00
2006,07,21,14,40,27.20
2006,07,21,14,41,27.40
2006,07,21,14,42,27.50
2006,07,21,14,43,27.70
2006,07,21,14,44,27.90
2006,07,21,14,45,28.00
2006,07,21,14,46,28.20
2006,07,21,14,47,28.40
2006,07,21,14,48,28.60
2006,07,21,14,49,28.90
2006,07,21,14,50,29.00
2006,07,21,14,51,29.20
2006,07,21,14,52,29.40
2006,07,21,14,53,29.40
2006,07,21,14,54,29.40
2006,07,21,14,55,29.50
2006,07,21,14,56,29.50
2006,07,21,14,57,29.60
2006,07,21,14,58,29.60
2006,07,21,14,59,29.50
2006,07,21,15,00,29.40
2006,07,21,15,01,29.40
2006,07,21,15,02,29.30
2006,07,21,15,03,29.30
2006,07,21,15,04,29.30
2006,07,21,15,05,29.30
2006,07,21,15,06,29.30
2006,07,21,15,07,29.40
2006,07,21,15,08,29.40
2006,07,21,15,09,29.50
2006,07,21,15,10,29.60
2006,07,21,15,11,29.70
2006,07,21,15,12,29.80
2006,07,21,15,13,29.80
2006,07,21,15,14,29.80
2006,07,21,15,15,29.90
2006,07,21,15,16,30.00
2006,07,21,15,17,30.10
2006,07,21,15,18,30.20
2006,07,21,15,19,30.10
2006,07,21,15,20,30.00
2006,07,21,15,21,29.90
2006,07,21,15,22,29.70
2006,07,21,15,23,29.50
2006,07,21,15,24,29.30
2006,07,21,15,25,29.20
2006,07,21,15,26,29.20
2006,07,21,15,27,29.20
2006,07,21,15,28,29.00
2006,07,21,15,29,28.80
2006,07,21,15,30,28.70
2006,07,21,15,31,28.70
2006,07,21,15,32,28.70
2006,07,21,15,33,28.70
2006,07,21,15,34,28.60
2006,07,21,15,35,28.60
2006,07,21,15,36,28.50
2006,07,21,15,37,28.40
2006,07,21,15,38,28.20
2006,07,21,15,39,28.10
2006,07,21,15,40,28.00
2006,07,21,15,41,27.90
2006,07,21,15,42,27.80
2006,07,21,15,43,27.80
2006,07,21,15,44,27.80
2006,07,21,15,45,27.70
2006,07,21,15,46,27.90
2006,07,21,15,47,28.00
2006,07,21,15,48,28.10
2006,07,21,15,49,28.20
2006,07,21,15,50,28.20
2006,07,21,15,51,28.10
2006,07,21,15,52,27.90
2006,07,21,15,53,27.80
2006,07,21,15,54,27.60
2006,07,21,15,55,27.60
2006,07,21,15,56,27.70
2006,07,21,15,57,27.80
2006,07,21,15,58,27.90
2006,07,21,15,59,27.90
2006,07,21,16,00,27.90
2006,07,21,16,01,28.00
2006,07,21,16,02,28.00
2006,07,21,16,03,28.00
2006,07,21,16,04,28.00
2006,07,21,16,05,28.00
2006,07,21,16,06,27.90
2006,07,21,16,07,27.80
2006,07,21,16,08,27.80
2006,07,21,16,09,27.90
2006,07,21,16,10,27.90
2006,07,21,16,11,28.00
2006,07,21,16,12,28.10
2006,07,21,16,13,28.20
2006,07,21,16,14,28.30
2006,07,21,16,15,28.30
2006,07,21,16,16,28.40
2006,07,21,16,17,28.40
2006,07,21,16,18,28.40
2006,07,21,16,19,28.40
2006,07,21,16,20,28.60
2006,07,21,16,21,28.60
2006,07,21,16,22,28.70
2006,07,21,16,23,28.70
2006,07,21,16,24,28.70
2006,07,21,16,25,28.70
2006,07,21,16,26,28.70
2006,07,21,16,27,28.80
2006,07,21,16,28,28.70
2006,07,21,16,29,28.60
2006,07,21,16,30,28.50
2006,07,21,16,31,28.40
2006,07,21,16,32,28.30
2006,07,21,16,33,28.20
2006,07,21,16,34,28.30
2006,07,21,16,35,28.30
2006,07,21,16,36,28.20
2006,07,21,16,37,28.10
2006,07,21,16,38,28.10
2006,07,21,16,39,28.10
2006,07,21,16,40,28.10
2006,07,21,16,41,28.10
2006,07,21,16,42,28.10
2006,07,21,16,43,28.10
2006,07,21,16,44,28.00
2006,07,21,16,45,28.00
2006,07,21,16,46,28.00
2006,07,21,16,47,28.00
2006,07,21,16,48,28.10
2006,07,21,16,49,28.10
2006,07,21,16,50,28.10
2006,07,21,16,51,28.20
2006,07,21,16,52,28.20
2006,07,21,16,53,28.30
2006,07,21,16,54,28.40
2006,07,21,16,55,28.40
2006,07,21,16,56,28.50
2006,07,21,16,57,28.60
2006,07,21,16,58,28.50
2006,07,21,16,59,28.40
2006,07,21,17,00,28.40
2006,07,21,17,01,28.40
2006,07,21,17,02,28.40
2006,07,21,17,03,28.40
2006,07,21,17,04,28.30
2006,07,21,17,05,28.20
2006,07,21,17,06,28.10
2006,07,21,17,07,28.00
2006,07,21,17,08,28.00
2006,07,21,17,09,28.00
2006,07,21,17,10,27.80
2006,07,21,17,11,27.70
2006,07,21,17,12,27.60
2006,07,21,17,13,27.60
2006,07,21,17,14,27.60
2006,07,21,17,15,27.40
2006,07,21,17,16,27.40
2006,07,21,17,17,27.30
2006,07,21,17,18,27.30
2006,07,21,17,19,27.30